TimeCST,TemperatureF,Dew PointF,Humidity,Sea Level PressureIn,VisibilityMPH,Wind Direction,Wind SpeedMPH,Gust SpeedMPH,PrecipitationIn,Events,Conditions,WindDirDegrees,DateUTC
12:54 AM,33.1,19.0,56,29.72,10.0,West,12.7,23.0,N/A,,Clear,260,2011-11-16 06:54:00
1:54 AM,32.0,18.0,56,29.72,10.0,West,9.2,-,N/A,,Clear,260,2011-11-16 07:54:00
2:54 AM,32.0,19.0,59,29.73,10.0,WSW,11.5,18.4,N/A,,Overcast,250,2011-11-16 08:54:00
3:54 AM,32.0,19.0,59,29.74,10.0,West,11.5,-,N/A,,Clear,270,2011-11-16 09:54:00
4:54 AM,30.9,19.9,64,29.75,10.0,West,10.4,-,N/A,,Clear,280,2011-11-16 10:54:00
5:54 AM,30.9,21.0,67,29.77,10.0,WNW,9.2,-,N/A,,Clear,290,2011-11-16 11:54:00
6:54 AM,30.9,19.9,64,29.80,10.0,WNW,12.7,23.0,N/A,,Partly Cloudy,300,2011-11-16 12:54:00
7:54 AM,32.0,19.9,61,29.83,10.0,WNW,13.8,21.9,N/A,,Overcast,300,2011-11-16 13:54:00
8:54 AM,32.0,19.0,59,29.85,10.0,WNW,10.4,23.0,N/A,,Overcast,290,2011-11-16 14:54:00
9:54 AM,30.9,16.0,54,29.88,10.0,WNW,15.0,26.5,N/A,,Overcast,290,2011-11-16 15:54:00
10:54 AM,32.0,15.1,50,29.90,10.0,WNW,18.4,24.2,N/A,,Partly Cloudy,300,2011-11-16 16:54:00
11:54 AM,32.0,14.0,48,29.91,10.0,WNW,16.1,23.0,N/A,,Clear,300,2011-11-16 17:54:00
12:54 PM,33.1,12.0,42,29.91,10.0,West,12.7,24.2,N/A,,Partly Cloudy,280,2011-11-16 18:54:00
1:54 PM,34.0,12.0,40,29.91,10.0,West,13.8,20.7,N/A,,Clear,270,2011-11-16 19:54:00
2:54 PM,33.1,10.9,40,29.91,10.0,West,11.5,-,N/A,,Clear,280,2011-11-16 20:54:00
3:54 PM,33.1,10.0,38,29.94,10.0,NW,8.1,-,N/A,,Mostly Cloudy,310,2011-11-16 21:54:00
4:54 PM,32.0,10.9,42,29.96,10.0,West,11.5,24.2,N/A,,Overcast,280,2011-11-16 22:54:00
6:54 PM,28.9,12.0,49,29.99,10.0,West,6.9,-,N/A,,Mostly Cloudy,280,2011-11-17 00:54:00
8:54 PM,28.0,15.1,58,30.00,10.0,WNW,5.8,-,N/A,,Overcast,290,2011-11-17 02:54:00
9:54 PM,28.0,14.0,56,29.99,10.0,West,5.8,-,N/A,,Overcast,270,2011-11-17 03:54:00
10:54 PM,27.0,15.1,61,29.98,10.0,WNW,4.6,-,N/A,,Overcast,300,2011-11-17 04:54:00
11:21 PM,26.6,17.6,69,29.93,2.5,West,11.5,18.4,0.00,Snow,Light Snow,280,2011-11-17 05:21:00
11:35 PM,24.8,19.4,80,29.93,3.0,West,6.9,-,0.00,Snow,Light Snow,270,2011-11-17 05:35:00
11:54 PM,25.0,19.9,81,29.98,10.0,West,8.1,-,0.00,,Overcast,280,2011-11-17 05:54:00